KQ4DLB-13 Weather Reports


time (UTC)temp
C
wind
direction
speed
KPH
gust
KPH
rain 1hr
cm
rain 24hr
cm
rain mn
cm
humidity
%
barometer
mb
20260906004002 27 285 8.0 24.1 0.00 0.00 0.00 85 986.9
20260906003502 27 272 17.7 25.7 0.00 0.00 0.00 84 986.8
20260906003002 28 271 19.3 25.7 0.00 0.00 0.00 82 986.6
20260906002503 28 259 16.1 27.4 0.00 0.00 0.00 82 986.4
20260906002002 28 209 17.7 30.6 0.00 0.00 0.00 81 986.5
20260906001502 28 202 19.3 29.0 0.00 0.00 0.00 80 986.6
20260906001003 28 205 19.3 27.4 0.00 0.00 0.00 79 986.6
20260906000502 29 207 19.3 29.0 0.00 0.00 0.00 78 986.6
20260906000002 29 206 17.7 27.4 0.00 0.00 0.00 77 986.7
20260905235503 30 201 19.3 29.0 0.00 0.00 0.00 76 986.8
20260905235003 30 203 19.3 29.0 0.00 0.00 0.00 75 986.9
20260905234503 30 204 17.7 29.0 0.00 0.00 0.00 74 987.0
20260905234002 30 204 20.9 27.4 0.00 0.00 0.00 73 987.0
20260905233502 31 199 19.3 29.0 0.00 0.00 0.00 71 987.0
20260905233003 31 179 22.5 35.4 0.00 0.00 0.00 70 986.9
20260905232502 31 177 22.5 32.2 0.00 0.00 0.00 69 986.8
20260905232002 32 176 19.3 30.6 0.00 0.00 0.00 67 986.8
20260905231502 32 181 19.3 29.0 0.00 0.00 0.00 65 986.8
20260905231002 33 170 19.3 27.4 0.00 0.00 0.00 61 986.8
20260905230502 33 176 17.7 27.4 0.00 0.00 0.00 59 986.9
20260905230003 33 169 17.7 27.4 0.00 0.00 0.00 57 986.9
20260905225502 33 176 16.1 27.4 0.00 0.00 0.00 58 986.9
20260905225002 34 184 19.3 27.4 0.00 0.00 0.00 58 986.9
20260905224502 35 171 19.3 29.0 0.00 0.00 0.00 54 986.9
20260905224002 35 168 16.1 24.1 0.00 0.00 0.00 53 986.9
20260905223502 35 167 12.9 22.5 0.00 0.00 0.00 55 986.8
20260905223002 35 170 16.1 25.7 0.00 0.00 0.00 55 986.8
20260905222502 35 169 14.5 25.7 0.00 0.00 0.00 53 986.9
20260905222002 35 171 11.3 19.3 0.00 0.00 0.00 51 986.9
20260905221502 35 176 12.9 25.7 0.00 0.00 0.00 51 986.9
20260905221003 35 174 11.3 20.9 0.00 0.00 0.00 50 987.0
20260905220502 35 172 12.9 22.5 0.00 0.00 0.00 50 987.0
20260905220002 35 172 11.3 16.1 0.00 0.00 0.00 51 987.0
20260905215503 35 169 14.5 22.5 0.00 0.00 0.00 51 987.0
20260905215002 35 170 12.9 22.5 0.00 0.00 0.00 52 987.0
20260905214502 35 163 17.7 27.4 0.00 0.00 0.00 54 987.1
20260905214002 35 167 14.5 22.5 0.00 0.00 0.00 52 987.1
20260905213502 35 164 14.5 24.1 0.00 0.00 0.00 52 987.1
20260905213002 36 172 12.9 20.9 0.00 0.00 0.00 52 987.1
20260905212503 36 159 11.3 16.1 0.00 0.00 0.00 50 987.1
20260905212002 36 175 14.5 22.5 0.00 0.00 0.00 50 987.1
20260905211502 36 169 11.3 19.3 0.00 0.00 0.00 51 987.1
20260905211002 35 164 11.3 20.9 0.00 0.00 0.00 51 987.2
20260905210502 35 172 12.9 19.3 0.00 0.00 0.00 50 987.2
20260905210003 35 172 12.9 17.7 0.00 0.00 0.00 51 987.3
20260905205503 36 164 11.3 17.7 0.00 0.00 0.00 49 987.3
20260905205002 36 181 17.7 30.6 0.00 0.00 0.00 50 987.4
20260905204502 35 162 9.7 17.7 0.00 0.00 0.00 50 987.5
20260905204002 35 171 12.9 19.3 0.00 0.00 0.00 52 987.6
20260905203503 35 168 17.7 24.1 0.00 0.00 0.00 51 987.6
20260905203002 35 170 16.1 25.7 0.00 0.00 0.00 51 987.6
20260905202502 35 162 17.7 27.4 0.00 0.00 0.00 52 987.7
20260905202002 35 180 14.5 24.1 0.00 0.00 0.00 53 987.8
20260905201502 35 172 14.5 24.1 0.00 0.00 0.00 55 987.9
20260905201002 35 167 14.5 24.1 0.00 0.00 0.00 51 987.9
20260905200502 35 264 9.7 16.1 0.00 0.00 0.00 50 988.0
20260905200003 35 174 17.7 27.4 0.00 0.00 0.00 52 988.1
20260905195501 35 177 14.5 25.7 0.00 0.00 0.00 53 988.2
20260905195003 35 178 17.7 24.1 0.00 0.00 0.00 54 988.2
20260905194503 35 169 14.5 19.3 0.00 0.00 0.00 54 988.3
20260905194002 35 179 16.1 22.5 0.00 0.00 0.00 54 988.3
20260905193502 35 184 14.5 24.1 0.00 0.00 0.00 51 988.3
20260905193003 35 185 14.5 22.5 0.00 0.00 0.00 52 988.3
20260905192502 35 175 14.5 20.9 0.00 0.00 0.00 53 988.4
20260905192002 35 168 14.5 20.9 0.00 0.00 0.00 49 988.4
20260905191502 36 176 17.7 25.7 0.00 0.00 0.00 50 988.5
20260905191002 35 180 11.3 20.9 0.00 0.00 0.00 50 988.6
20260905190503 35 159 12.9 25.7 0.00 0.00 0.00 50 988.8
20260905190002 35 153 9.7 16.1 0.00 0.00 0.00 51 988.9
20260905185502 35 161 9.7 14.5 0.00 0.00 0.00 52 989.0
20260905185002 35 162 12.9 27.4 0.00 0.00 0.00 52 989.1
20260905184502 35 165 16.1 29.0 0.00 0.00 0.00 51 989.1
20260905184002 35 176 12.9 22.5 0.00 0.00 0.00 52 989.2
20260905183502 34 178 11.3 19.3 0.00 0.00 0.00 52 989.2
20260905183002 34 164 16.1 22.5 0.00 0.00 0.00 55 989.3
20260905182502 33 182 11.3 19.3 0.00 0.00 0.00 57 989.3
20260905182002 33 177 17.7 29.0 0.00 0.00 0.00 60 989.3
20260905181503 33 159 20.9 27.4 0.00 0.00 0.00 61 989.4
20260905181002 34 157 22.5 30.6 0.00 0.00 0.00 59 989.5
20260905180502 35 175 19.3 32.2 0.00 0.00 0.00 56 989.5
20260905180002 35 179 20.9 35.4 0.00 0.00 0.00 53 989.5
20260905175502 35 181 12.9 25.7 0.00 0.00 0.00 53 989.5
20260905175002 35 179 12.9 22.5 0.00 0.00 0.00 54 989.5
20260905174502 34 292 9.7 16.1 0.00 0.00 0.00 54 989.5
20260905174003 34 176 19.3 29.0 0.00 0.00 0.00 56 989.6
20260905173502 34 185 16.1 32.2 0.00 0.00 0.00 56 989.6
20260905173002 34 178 11.3 20.9 0.00 0.00 0.00 56 989.7
20260905172502 34 170 12.9 19.3 0.00 0.00 0.00 57 989.7
20260905172002 34 142 9.7 17.7 0.00 0.00 0.00 55 989.7
20260905171502 34 201 11.3 17.7 0.00 0.00 0.00 56 989.8
20260905171002 33 179 16.1 29.0 0.00 0.00 0.00 56 989.8
20260905170502 33 347 16.1 27.4 0.00 0.00 0.00 55 989.8
20260905170003 33 185 12.9 25.7 0.00 0.00 0.00 57 989.9
20260905165502 33 347 11.3 24.1 0.00 0.00 0.00 58 990.0
20260905165002 33 127 9.7 19.3 0.00 0.00 0.00 56 990.1
20260905164502 33 236 11.3 22.5 0.00 0.00 0.00 57 990.2
20260905164002 33 327 11.3 25.7 0.00 0.00 0.00 57 990.2
20260905163502 33 300 9.7 19.3 0.00 0.00 0.00 58 990.2
20260905163002 33 232 9.7 20.9 0.00 0.00 0.00 58 990.2
20260905162502 33 321 11.3 20.9 0.00 0.00 0.00 58 990.2
20260905162003 32 317 8.0 16.1 0.00 0.00 0.00 62 990.2
20260905161502 32 319 8.0 11.3 0.00 0.00 0.00 61 990.3
20260905161002 32 318 8.0 12.9 0.00 0.00 0.00 62 990.3
20260905160502 32 319 8.0 11.3 0.00 0.00 0.00 64 990.3
20260905160003 31 319 8.0 11.3 0.00 0.00 0.00 65 990.4
20260905155502 31 286 14.5 35.4 0.00 0.00 0.00 69 990.4
20260905155002 31 239 22.5 32.2 0.00 0.00 0.00 68 990.5
20260905154502 31 242 20.9 35.4 0.00 0.00 0.00 66 990.5
20260905154002 31 238 22.5 33.8 0.00 0.00 0.00 70 990.6
20260905153502 30 224 22.5 37.0 0.00 0.00 0.00 71 990.6
20260905153002 30 213 24.1 38.6 0.00 0.00 0.00 71 990.6
20260905152502 30 215 19.3 33.8 0.00 0.00 0.00 72 990.6
20260905152003 29 213 17.7 25.7 0.00 0.00 0.00 74 990.6
20260905151502 29 267 14.5 27.4 0.00 0.00 0.00 77 990.4
20260905151002 29 275 8.0 20.9 0.00 0.00 0.00 79 990.3
20260905150502 28 312 4.8 9.7 0.00 0.00 0.00 81 990.4
20260905150002 28 291 6.4 16.1 0.00 0.00 0.00 81 990.4
20260905145503 28 316 3.2 6.4 0.00 0.00 0.00 80 990.4
20260905145003 27 310 6.4 11.3 0.00 0.00 0.00 81 990.4
20260905144502 27 293 4.8 12.9 0.00 0.00 0.00 84 990.7
20260905144002 27 278 8.0 19.3 0.00 0.00 0.00 85 990.9
20260905143502 27 286 8.0 11.3 0.00 0.00 0.00 84 991.0
20260905143003 27 295 4.8 14.5 0.00 0.00 0.00 83 991.0
20260905142502 27 304 6.4 19.3 0.00 0.00 0.00 86 990.9
20260905142002 27 290 9.7 22.5 0.00 0.00 0.00 87 991.0
20260905141502 26 317 4.8 11.3 0.00 0.00 0.00 89 991.0
20260905141002 26 299 8.0 38.6 0.00 0.00 0.00 90 990.9
20260905140502 26 254 11.3 25.7 0.00 0.00 0.00 90 990.9
20260905140003 25 311 6.4 12.9 0.00 0.00 0.00 90 990.9
20260905135502 25 311 6.4 11.3 0.00 0.00 0.00 91 990.9
20260905135002 25 307 6.4 11.3 0.00 0.00 0.00 93 990.9
20260905134502 25 280 8.0 17.7 0.00 0.00 0.00 94 991.0
20260905134002 24 246 8.0 22.5 0.00 0.00 0.00 95 991.0
20260905133502 24 252 9.7 24.1 0.00 0.00 0.00 95 991.0
20260905133003 24 208 14.5 29.0 0.00 0.00 0.00 96 991.0
20260905132502 24 195 14.5 29.0 0.00 0.00 0.00 97 991.0
20260905132002 23 198 17.7 27.4 0.00 0.00 0.00 98 991.0
20260905131502 23 194 17.7 29.0 0.00 0.00 0.00 98 991.0
20260905131002 23 202 16.1 27.4 0.00 0.00 0.00 98 990.9
20260905130502 23 196 16.1 27.4 0.00 0.00 0.00 99 990.9
20260905130002 23 194 17.7 27.4 0.00 0.00 0.00 99 990.9
20260905125502 23 197 17.7 27.4 0.00 0.00 0.00 99 991.0
20260905125003 23 203 19.3 25.7 0.00 0.00 0.00 99 991.0
20260905124503 22 218 16.1 25.7 0.00 0.00 0.00 99 991.0
20260905124002 22 221 16.1 27.4 0.00 0.00 0.00 99 991.0
20260905123502 22 214 12.9 27.4 0.00 0.00 0.00 99 990.9
20260905123003 22 248 8.0 22.5 0.00 0.00 0.00 99 990.9
20260905122502 22 250 8.0 20.9 0.00 0.00 0.00 99 990.9
20260905122002 22 264 4.8 17.7 0.00 0.00 0.00 99 990.7
20260905121502 22 317 3.2 3.2 0.00 0.00 0.00 99 990.7
20260905121003 22 316 3.2 3.2 0.00 0.00 0.00 99 990.6
20260905120502 22 317 3.2 6.4 0.00 0.00 0.00 99 990.6
20260905120002 22 317 4.8 8.0 0.00 0.00 0.00 99 990.5
20260905115502 22 315 6.4 9.7 0.00 0.00 0.00 99 990.4
20260905115002 22 308 4.8 9.7 0.00 0.00 0.00 99 990.4
20260905114502 22 317 6.4 9.7 0.00 0.00 0.00 99 990.4
20260905114003 22 314 6.4 8.0 0.00 0.00 0.00 99 990.3
20260905113502 22 317 6.4 9.7 0.00 0.00 0.00 99 990.2
20260905113002 22 316 6.4 8.0 0.00 0.00 0.00 99 990.2
20260905112502 22 316 6.4 9.7 0.00 0.00 0.00 99 990.1
20260905112002 22 315 6.4 11.3 0.00 0.00 0.00 99 990.1
20260905111502 22 314 6.4 12.9 0.00 0.00 0.00 99 990.0
20260905111002 22 317 4.8 6.4 0.00 0.00 0.00 99 989.9
20260905110502 22 312 4.8 19.3 0.00 0.00 0.00 99 989.8
20260905110002 22 313 6.4 32.2 0.00 0.00 0.00 99 989.8
20260905105503 22 318 4.8 6.4 0.00 0.00 0.00 99 989.8
20260905105002 22 317 4.8 8.0 0.00 0.00 0.00 98 989.7
20260905104503 22 318 6.4 8.0 0.00 0.00 0.00 99 989.6
20260905104002 22 309 6.4 24.1 0.00 0.00 0.00 98 989.6
20260905103502 22 310 4.8 14.5 0.00 0.00 0.00 98 989.6
20260905103002 22 306 6.4 12.9 0.00 0.00 0.00 98 989.6
20260905102503 22 319 6.4 8.0 0.00 0.00 0.00 98 989.6
20260905102003 22 313 6.4 12.9 0.00 0.00 0.00 98 989.6
20260905101502 22 305 8.0 19.3 0.00 0.00 0.00 98 989.6
20260905101002 22 316 6.4 19.3 0.00 0.00 0.00 98 989.5
20260905100502 22 306 8.0 20.9 0.00 0.00 0.00 98 989.6
20260905100002 22 308 9.7 24.1 0.00 0.00 0.00 98 989.6
20260905095502 22 311 8.0 24.1 0.00 0.00 0.00 98 989.6
20260905095003 22 312 6.4 19.3 0.00 0.00 0.00 98 989.6
20260905094502 22 314 6.4 17.7 0.00 0.00 0.00 98 989.6
20260905094002 22 309 6.4 20.9 0.00 0.00 0.00 98 989.6
20260905093503 22 313 6.4 16.1 0.00 0.00 0.00 98 989.7
20260905093003 22 311 6.4 22.5 0.00 0.00 0.00 98 989.6
20260905092502 22 302 6.4 24.1 0.00 0.00 0.00 98 989.7
20260905092002 22 313 4.8 19.3 0.00 0.00 0.00 98 989.6
20260905091503 22 315 4.8 12.9 0.00 0.00 0.00 98 989.6
20260905091002 22 310 6.4 19.3 0.00 0.00 0.00 98 989.6
20260905090502 22 290 6.4 41.8 0.00 0.00 0.00 98 989.6
20260905090003 22 294 6.4 20.9 0.00 0.00 0.00 98 989.6
20260905085502 22 305 8.0 27.4 0.00 0.00 0.00 98 989.6
20260905085002 22 306 8.0 24.1 0.00 0.00 0.00 98 989.6
20260905084502 22 316 4.8 9.7 0.00 0.00 0.00 98 989.5
20260905084002 22 316 6.4 9.7 0.00 0.00 0.00 98 989.6
20260905083502 22 316 6.4 11.3 0.00 0.00 0.00 98 989.6
20260905083003 22 316 6.4 9.7 0.00 0.00 0.00 98 989.6
20260905082503 22 316 4.8 8.0 0.00 0.00 0.00 98 989.7
20260905082002 22 316 6.4 9.7 0.00 0.00 0.00 97 989.7
20260905081502 22 316 6.4 9.7 0.00 0.00 0.00 97 989.7
20260905081007 22 316 4.8 8.0 0.00 0.00 0.00 97 989.8
20260905080503 22 316 6.4 12.9 0.00 0.00 0.00 97 989.8
20260905080002 22 317 6.4 9.7 0.00 0.00 0.00 97 989.8
20260905075502 22 317 6.4 9.7 0.00 0.00 0.00 97 989.7
20260905075002 22 316 4.8 8.0 0.00 0.00 0.00 97 989.7
20260905074502 22 316 4.8 8.0 0.00 0.00 0.00 97 989.7
20260905074002 22 316 4.8 8.0 0.00 0.00 0.00 97 989.7
20260905073502 22 316 3.2 6.4 0.00 0.00 0.00 97 989.7
20260905073002 22 316 6.4 20.9 0.00 0.00 0.00 97 989.7
20260905072502 22 315 8.0 27.4 0.00 0.00 0.00 97 989.7
20260905072002 22 317 6.4 9.7 0.00 0.00 0.00 97 989.7
20260905071503 22 317 6.4 8.0 0.00 0.00 0.00 97 989.7
20260905071002 22 317 6.4 11.3 0.00 0.00 0.00 97 989.6
20260905070502 22 216 17.7 40.2 0.00 0.00 0.00 97 989.6
20260905070002 23 217 25.7 38.6 0.00 0.00 0.00 97 989.6
20260905065502 23 245 25.7 40.2 0.00 0.00 0.00 97 989.7
20260905065002 23 186 24.1 40.2 0.00 0.00 0.00 97 989.7
20260905064503 23 194 27.4 40.2 0.00 0.00 0.00 97 989.6
20260905064002 23 251 25.7 38.6 0.00 0.00 0.00 97 989.6
20260905063502 23 247 25.7 37.0 0.00 0.00 0.00 97 989.6
20260905063002 23 221 25.7 37.0 0.00 0.00 0.00 97 989.6
20260905062502 23 190 25.7 40.2 0.00 0.00 0.00 97 989.6
20260905062003 23 171 27.4 41.8 0.00 0.00 0.00 97 989.6
20260905061502 23 171 30.6 38.6 0.00 0.00 0.00 97 989.7
20260905061002 23 185 29.0 41.8 0.00 0.00 0.00 97 989.6
20260905060502 23 201 20.9 35.4 0.00 0.00 0.00 97 989.7
20260905060002 23 247 19.3 35.4 0.00 0.00 0.00 97 989.7
20260905055503 23 268 17.7 32.2 0.00 0.00 0.00 96 989.7
20260905055002 23 233 17.7 35.4 0.00 0.00 0.00 96 989.7
20260905054502 23 213 16.1 30.6 0.00 0.00 0.00 96 989.7
20260905054002 23 280 17.7 59.5 0.00 0.00 0.00 96 989.8
20260905053503 23 173 29.0 69.2 0.00 0.00 0.00 96 989.9
20260905053002 23 171 24.1 37.0 0.00 0.00 0.00 96 989.9
20260905052502 23 214 11.3 29.0 0.00 0.00 0.00 96 989.9
20260905052002 23 282 16.1 32.2 0.00 0.00 0.00 96 989.9
20260905051502 23 224 11.3 27.4 0.00 0.00 0.00 96 989.9
20260905051002 23 272 16.1 30.6 0.00 0.00 0.00 95 989.9
20260905050502 23 182 20.9 30.6 0.00 0.00 0.00 95 990.0
20260905050003 23 188 9.7 29.0 0.00 0.00 0.00 95 990.0
20260905045502 23 227 11.3 32.2 0.00 0.00 0.00 95 990.0
20260905045002 23 263 22.5 32.2 0.00 0.00 0.00 95 990.1
20260905044503 23 201 19.3 30.6 0.00 0.00 0.00 95 990.1
20260905044002 23 236 9.7 27.4 0.00 0.00 0.00 95 990.1
20260905043502 23 195 14.5 30.6 0.00 0.00 0.00 95 990.1
20260905043003 23 239 11.3 32.2 0.00 0.00 0.00 94 990.1
20260905042503 23 166 27.4 35.4 0.00 0.00 0.00 94 990.2
20260905042002 23 171 24.1 37.0 0.00 0.00 0.00 94 990.2
20260905041502 23 173 22.5 49.9 0.00 0.00 0.00 94 990.2
20260905041002 23 182 14.5 30.6 0.00 0.00 0.00 94 990.1
20260905040502 23 314 3.2 6.4 0.00 0.00 0.00 94 990.2
20260905040002 24 313 3.2 12.9 0.00 0.00 0.00 94 990.2
20260905035503 24 288 4.8 27.4 0.00 0.00 0.00 94 990.3
20260905035002 24 315 3.2 6.4 0.00 0.00 0.00 93 990.2
20260905034502 24 315 3.2 6.4 0.00 0.00 0.00 93 990.3
20260905034002 24 316 3.2 4.8 0.00 0.00 0.00 93 990.4
20260905033503 24 315 1.6 4.8 0.00 0.00 0.00 93 990.4
20260905033002 24 315 1.6 3.2 0.00 0.00 0.00 93 990.4
20260905032502 24 315 1.6 3.2 0.00 0.00 0.00 92 990.5
20260905032002 24 315 1.6 3.2 0.00 0.00 0.00 92 990.5
20260905031502 24 315 1.6 3.2 0.00 0.00 0.00 91 990.5
20260905031003 25 315 1.6 3.2 0.00 0.00 0.00 91 990.5
20260905030502 25 315 1.6 4.8 0.00 0.00 0.00 91 990.6
20260905030002 25 315 4.8 8.0 0.00 0.00 0.00 90 990.6
20260905025502 25 316 3.2 8.0 0.00 0.00 0.00 90 990.6
20260905025002 25 315 1.6 3.2 0.00 0.00 0.00 90 990.6
20260905024502 25 315 1.6 4.8 0.00 0.00 0.00 90 990.6
20260905024002 25 315 3.2 4.8 0.00 0.00 0.00 90 990.5
20260905023502 25 315 3.2 4.8 0.00 0.00 0.00 89 990.6
20260905023002 25 315 3.2 4.8 0.00 0.00 0.00 89 990.5
20260905022502 25 315 1.6 4.8 0.00 0.00 0.00 88 990.5
20260905022002 25 315 1.6 3.2 0.00 0.00 0.00 87 990.5
20260905021503 25 315 1.6 3.2 0.00 0.00 0.00 87 990.5
20260905021002 25 316 6.4 11.3 0.00 0.00 0.00 86 990.5
20260905020502 25 316 9.7 14.5 0.00 0.00 0.00 87 990.4
20260905020002 25 315 3.2 4.8 0.00 0.00 0.00 87 990.1
20260905015502 25 315 1.6 3.2 0.00 0.00 0.00 87 990.1
20260905015003 25 315 1.6 3.2 0.00 0.00 0.00 86 990.1
20260905014502 25 315 1.6 3.2 0.00 0.00 0.00 86 990.0
20260905014002 25 315 1.6 3.2 0.00 0.00 0.00 85 989.8
20260905013503 26 315 1.6 3.2 0.00 0.00 0.00 85 989.7
20260905013002 26 315 1.6 3.2 0.00 0.00 0.00 85 989.7
20260905012501 26 315 1.6 3.2 0.00 0.00 0.00 84 989.7
20260905012002 26 315 1.6 3.2 0.00 0.00 0.00 84 989.7
20260905011503 26 315 1.6 3.2 0.00 0.00 0.00 83 989.6
20260905011002 26 315 1.6 4.8 0.00 0.00 0.00 82 989.5
20260905010502 26 315 3.2 4.8 0.00 0.00 0.00 82 989.5
20260905010002 26 315 3.2 6.4 0.00 0.00 0.00 82 989.4
20260905005502 27 315 4.8 4.8 0.00 0.00 0.00 80 989.3
20260905005002 27 315 4.8 6.4 0.00 0.00 0.00 79 989.3
20260905004503 27 315 4.8 6.4 0.00 0.00 0.00 79 989.3